NAT088 SKRG-SKSM

Flight info

Callsign NAT088
Flight time 1h 17m
Altitude 28000
Route BIVIG1B BIVIG UW3 MGN/N0272F290 DCT DARNI DARNI1C
Aircraft BE20/L-SBGRY/S

Departure

Time 2026-05-04 23:03
Airport Jose Maria Córdova International Airport (SKRG)

Arrival

Time 2026-05-05 00:20
Airport Simón Bolívar International Airport (SKSM)
Time Latitude Longitude Altitude Speed Heading
2026-05-04 22:24 6.17465 -75.43032 7016 ft 0 kts 14°
2026-05-04 22:48 6.17464 -75.43033 7016 ft 1 kts 14°
2026-05-04 22:49 6.17441 -75.43039 7018 ft 4 kts 28°
2026-05-04 22:49 6.17424 -75.43055 7016 ft 4 kts 86°
2026-05-04 22:49 6.17424 -75.43062 7018 ft 0 kts 101°
2026-05-04 22:56 6.17412 -75.43000 7015 ft 27 kts 101°
2026-05-04 22:56 6.17362 -75.42760 7014 ft 37 kts 112°
2026-05-04 22:57 6.17250 -75.42614 7015 ft 20 kts 173°
2026-05-04 22:57 6.17077 -75.42613 7011 ft 26 kts 163°
2026-05-04 22:57 6.16923 -75.42523 7001 ft 31 kts 149°
2026-05-04 22:57 6.16705 -75.42481 6989 ft 37 kts 180°
2026-05-04 22:58 6.16422 -75.42479 6980 ft 44 kts 180°
2026-05-04 22:58 6.16148 -75.42477 6973 ft 33 kts 179°
2026-05-04 22:58 6.15899 -75.42475 6971 ft 38 kts 179°
2026-05-04 22:58 6.15618 -75.42473 6971 ft 42 kts 183°
2026-05-04 22:59 6.15318 -75.42471 6972 ft 44 kts 180°
2026-05-04 22:59 6.15025 -75.42472 6973 ft 27 kts 180°
2026-05-04 22:59 6.14894 -75.42460 6972 ft 12 kts 128°
2026-05-04 22:59 6.14891 -75.42350 6971 ft 20 kts 70°
2026-05-04 23:00 6.14958 -75.42305 6973 ft 14 kts 27°
2026-05-04 23:00 6.15004 -75.42295 6973 ft 0 kts 358°
2026-05-04 23:02 6.15141 -75.42299 6975 ft 48 kts 359°
2026-05-04 23:02 6.15673 -75.42301 6976 ft 103 kts
2026-05-04 23:02 6.16522 -75.42315 7112 ft 132 kts 360°
2026-05-04 23:02 6.17513 -75.42309 7376 ft 157 kts
2026-05-04 23:03 6.18682 -75.42256 7772 ft 169 kts
2026-05-04 23:03 6.19844 -75.42179 8271 ft 173 kts 18°
2026-05-04 23:03 6.20830 -75.41520 8837 ft 165 kts 51°
2026-05-04 23:03 6.21473 -75.40494 9129 ft 183 kts 70°
2026-05-04 23:04 6.22014 -75.39272 9423 ft 203 kts 66°
2026-05-04 23:04 6.22673 -75.37936 9605 ft 220 kts 65°
2026-05-04 23:04 6.23365 -75.36534 9808 ft 230 kts 66°
2026-05-04 23:04 6.24078 -75.35073 10029 ft 234 kts 65°
2026-05-04 23:05 6.24803 -75.33586 10253 ft 237 kts 66°
2026-05-04 23:05 6.25534 -75.32085 10480 ft 239 kts 66°
2026-05-04 23:05 6.26268 -75.30580 10701 ft 241 kts 65°
2026-05-04 23:05 6.27009 -75.29064 10924 ft 242 kts 65°
2026-05-04 23:06 6.27753 -75.27537 11149 ft 243 kts 65°
2026-05-04 23:06 6.28670 -75.26125 11464 ft 242 kts 49°
2026-05-04 23:06 6.29980 -75.25067 11778 ft 244 kts 31°
2026-05-04 23:06 6.31569 -75.24462 12112 ft 247 kts 13°
2026-05-04 23:07 6.33285 -75.24348 12331 ft 248 kts
2026-05-04 23:07 6.35017 -75.24351 12682 ft 249 kts
2026-05-04 23:07 6.36755 -75.24350 13030 ft 250 kts
2026-05-04 23:07 6.38494 -75.24349 13380 ft 250 kts
2026-05-04 23:08 6.40307 -75.24349 13748 ft 252 kts
2026-05-04 23:08 6.41975 -75.24349 14052 ft 253 kts
2026-05-04 23:08 6.43747 -75.24349 14368 ft 254 kts
2026-05-04 23:08 6.45515 -75.24350 14689 ft 255 kts
2026-05-04 23:09 6.47264 -75.24241 15006 ft 251 kts
2026-05-04 23:09 6.49022 -75.24082 15327 ft 254 kts
2026-05-04 23:09 6.50791 -75.23932 15652 ft 255 kts
2026-05-04 23:09 6.52519 -75.23786 15978 ft 255 kts
2026-05-04 23:10 6.54299 -75.23633 16314 ft 255 kts
2026-05-04 23:10 6.56086 -75.23477 16654 ft 256 kts
2026-05-04 23:10 6.57859 -75.23324 16992 ft 256 kts
2026-05-04 23:10 6.59639 -75.23170 17342 ft 256 kts
2026-05-04 23:11 6.61418 -75.23017 17694 ft 257 kts
2026-05-04 23:11 6.63196 -75.22863 18034 ft 256 kts
2026-05-04 23:11 6.64970 -75.22711 18379 ft 255 kts
2026-05-04 23:11 6.66734 -75.22558 18685 ft 254 kts
2026-05-04 23:12 6.68495 -75.22406 18993 ft 254 kts
2026-05-04 23:12 6.70235 -75.22255 19302 ft 253 kts
2026-05-04 23:12 6.71989 -75.22104 19614 ft 252 kts
2026-05-04 23:12 6.73739 -75.21953 19935 ft 252 kts
2026-05-04 23:13 6.75488 -75.21802 20260 ft 251 kts
2026-05-04 23:13 6.77226 -75.21652 20565 ft 251 kts
2026-05-04 23:13 6.78966 -75.21502 20894 ft 250 kts
2026-05-04 23:13 6.80697 -75.21352 21226 ft 249 kts
2026-05-04 23:14 6.82423 -75.21203 21564 ft 249 kts
2026-05-04 23:14 6.84145 -75.21054 21881 ft 248 kts
2026-05-04 23:14 6.85840 -75.20908 22216 ft 247 kts
2026-05-04 23:14 6.87553 -75.20760 22568 ft 245 kts
2026-05-04 23:15 6.89249 -75.20614 22917 ft 244 kts
2026-05-04 23:15 6.90933 -75.20468 23247 ft 242 kts
2026-05-04 23:15 6.92607 -75.20323 23585 ft 241 kts
2026-05-04 23:15 6.94271 -75.20179 23880 ft 239 kts
2026-05-04 23:16 6.95925 -75.20037 24182 ft 238 kts
2026-05-04 23:16 6.97578 -75.19893 24484 ft 237 kts
2026-05-04 23:16 6.99221 -75.19751 24788 ft 236 kts
2026-05-04 23:16 7.00855 -75.19610 25095 ft 235 kts
2026-05-04 23:17 7.02476 -75.19431 25395 ft 233 kts 12°
2026-05-04 23:17 7.04064 -75.19092 25666 ft 234 kts 13°
2026-05-04 23:17 7.05656 -75.18752 25917 ft 234 kts 13°
2026-05-04 23:17 7.07235 -75.18421 26190 ft 235 kts 12°
2026-05-04 23:18 7.08833 -75.18086 26470 ft 235 kts 12°
2026-05-04 23:18 7.10432 -75.17750 26750 ft 234 kts 12°
2026-05-04 23:18 7.12027 -75.17415 27033 ft 234 kts 13°
2026-05-04 23:18 7.13619 -75.17080 27326 ft 233 kts 12°
2026-05-04 23:19 7.15205 -75.16747 27610 ft 233 kts 12°
2026-05-04 23:19 7.16824 -75.16406 27649 ft 243 kts 13°
2026-05-04 23:19 7.18509 -75.16051 27669 ft 252 kts 13°
2026-05-04 23:19 7.20254 -75.15684 27662 ft 260 kts 13°
2026-05-04 23:20 7.22044 -75.15307 27669 ft 265 kts 12°
2026-05-04 23:20 7.23868 -75.14924 27663 ft 270 kts 12°
2026-05-04 23:20 7.25718 -75.14535 27661 ft 273 kts 12°
2026-05-04 23:20 7.27585 -75.14142 27668 ft 276 kts 12°
2026-05-04 23:21 7.29469 -75.13745 27659 ft 277 kts 13°
2026-05-04 23:21 7.31362 -75.13347 27658 ft 279 kts 12°
2026-05-04 23:21 7.33268 -75.12946 27668 ft 280 kts 12°
2026-05-04 23:21 7.35181 -75.12543 27633 ft 281 kts 13°
2026-05-04 23:22 7.37100 -75.12140 27645 ft 282 kts 13°
2026-05-04 23:22 7.39024 -75.11735 27644 ft 282 kts 13°
2026-05-04 23:22 7.40925 -75.11335 27642 ft 282 kts 13°
2026-05-04 23:22 7.42852 -75.10929 27645 ft 283 kts 13°
2026-05-04 23:23 7.44779 -75.10524 27642 ft 283 kts 13°
2026-05-04 23:23 7.46058 -75.10254 27638 ft 283 kts 13°
2026-05-04 23:23 7.47989 -75.09848 27642 ft 283 kts 13°
2026-05-04 23:23 7.49918 -75.09441 27621 ft 283 kts 13°
2026-05-04 23:24 7.51847 -75.09035 27621 ft 283 kts 13°
2026-05-04 23:24 7.53778 -75.08629 27624 ft 283 kts 13°
2026-05-04 23:24 7.55708 -75.08222 27621 ft 284 kts 13°
2026-05-04 23:24 7.57642 -75.07815 27627 ft 284 kts 13°
2026-05-04 23:25 7.59574 -75.07408 27621 ft 284 kts 13°
2026-05-04 23:25 7.61505 -75.07001 27622 ft 284 kts 13°
2026-05-04 23:25 7.63440 -75.06594 27602 ft 284 kts 12°
2026-05-04 23:25 7.65372 -75.06186 27607 ft 284 kts 12°
2026-05-04 23:26 7.67301 -75.05780 27605 ft 283 kts 12°
2026-05-04 23:26 7.69235 -75.05372 27605 ft 283 kts 12°
2026-05-04 23:26 7.71170 -75.04964 27606 ft 283 kts 13°
2026-05-04 23:26 7.73105 -75.04557 27605 ft 283 kts 13°
2026-05-04 23:27 7.75030 -75.04151 27603 ft 283 kts 13°
2026-05-04 23:27 7.76963 -75.03743 27607 ft 283 kts 13°
2026-05-04 23:27 7.78891 -75.03337 27601 ft 283 kts 13°
2026-05-04 23:27 7.80818 -75.02930 27599 ft 283 kts 13°
2026-05-04 23:28 7.82743 -75.02525 27593 ft 282 kts 13°
2026-05-04 23:28 7.84643 -75.02124 27599 ft 282 kts 13°
2026-05-04 23:28 7.86573 -75.01717 27598 ft 282 kts 13°
2026-05-04 23:28 7.88495 -75.01311 27597 ft 282 kts 13°
2026-05-04 23:29 7.90421 -75.00905 27598 ft 282 kts 13°
2026-05-04 23:29 7.92349 -75.00498 27595 ft 282 kts 13°
2026-05-04 23:29 7.94273 -75.00092 27595 ft 282 kts 13°
2026-05-04 23:29 7.96198 -74.99686 27593 ft 282 kts 13°
2026-05-04 23:30 7.98122 -74.99280 27596 ft 282 kts 13°
2026-05-04 23:30 8.00043 -74.98875 27598 ft 282 kts 13°
2026-05-04 23:30 8.01970 -74.98468 27594 ft 282 kts 13°
2026-05-04 23:30 8.03892 -74.98062 27596 ft 282 kts 13°
2026-05-04 23:31 8.05815 -74.97656 27596 ft 282 kts 13°
2026-05-04 23:31 8.07739 -74.97250 27596 ft 282 kts 12°
2026-05-04 23:31 8.09656 -74.96845 27600 ft 281 kts 12°
2026-05-04 23:31 8.11571 -74.96441 27596 ft 281 kts 12°
2026-05-04 23:32 8.13483 -74.96037 27592 ft 281 kts 12°
2026-05-04 23:32 8.15400 -74.95632 27594 ft 281 kts 12°
2026-05-04 23:32 8.17311 -74.95228 27592 ft 281 kts 12°
2026-05-04 23:32 8.19224 -74.94824 27595 ft 281 kts 12°
2026-05-04 23:33 8.21139 -74.94420 27592 ft 281 kts 12°
2026-05-04 23:33 8.23025 -74.94021 27592 ft 281 kts 12°
2026-05-04 23:33 8.24939 -74.93617 27589 ft 280 kts 12°
2026-05-04 23:33 8.26849 -74.93213 27590 ft 280 kts 12°
2026-05-04 23:34 8.28763 -74.92809 27593 ft 280 kts 12°
2026-05-04 23:34 8.30640 -74.92411 27591 ft 280 kts 12°
2026-05-04 23:34 8.32581 -74.92001 27591 ft 280 kts 12°
2026-05-04 23:34 8.34490 -74.91597 27593 ft 280 kts 12°
2026-05-04 23:35 8.36422 -74.91189 27589 ft 280 kts 12°
2026-05-04 23:35 8.38310 -74.90790 27590 ft 280 kts 12°
2026-05-04 23:35 8.40217 -74.90386 27590 ft 280 kts 12°
2026-05-04 23:35 8.42125 -74.89983 27586 ft 280 kts 12°
2026-05-04 23:36 8.44030 -74.89580 27588 ft 279 kts 12°
2026-05-04 23:36 8.45934 -74.89177 27586 ft 279 kts 12°
2026-05-04 23:36 8.47835 -74.88775 27587 ft 279 kts 12°
2026-05-04 23:36 8.49736 -74.88373 27590 ft 279 kts 12°
2026-05-04 23:37 8.51641 -74.87969 27586 ft 280 kts 12°
2026-05-04 23:37 8.53548 -74.87566 27588 ft 280 kts 12°
2026-05-04 23:37 8.55454 -74.87162 27586 ft 280 kts 12°
2026-05-04 23:37 8.57362 -74.86759 27589 ft 280 kts 12°
2026-05-04 23:38 8.59272 -74.86354 27587 ft 280 kts 12°
2026-05-04 23:38 8.61177 -74.85951 27590 ft 280 kts 12°
2026-05-04 23:38 8.63088 -74.85546 27590 ft 280 kts 12°
2026-05-04 23:38 8.64998 -74.85142 27587 ft 280 kts 12°
2026-05-04 23:39 8.66905 -74.84738 27589 ft 280 kts 12°
2026-05-04 23:39 8.68813 -74.84334 27588 ft 280 kts 12°
2026-05-04 23:39 8.70696 -74.83935 27586 ft 280 kts 12°
2026-05-04 23:39 8.72628 -74.83526 27588 ft 280 kts 12°
2026-05-04 23:40 8.74514 -74.83126 27585 ft 280 kts 12°
2026-05-04 23:40 8.76420 -74.82722 27586 ft 280 kts 12°
2026-05-04 23:40 8.78329 -74.82317 27584 ft 280 kts 12°
2026-05-04 23:40 8.80255 -74.81909 27463 ft 285 kts 12°
2026-05-04 23:41 8.82204 -74.81496 27295 ft 286 kts 12°
2026-05-04 23:41 8.84142 -74.81084 27129 ft 283 kts 12°
2026-05-04 23:41 8.86067 -74.80676 26957 ft 282 kts 12°
2026-05-04 23:41 8.87981 -74.80271 26789 ft 280 kts 12°
2026-05-04 23:42 8.89888 -74.79866 26620 ft 279 kts 12°
2026-05-04 23:42 8.91788 -74.79463 26454 ft 278 kts 12°
2026-05-04 23:42 8.93681 -74.79062 26289 ft 278 kts 12°
2026-05-04 23:42 8.95573 -74.78660 26126 ft 277 kts 11°
2026-05-04 23:43 8.97458 -74.78261 25963 ft 277 kts 11°
2026-05-04 23:43 8.99320 -74.77865 25804 ft 276 kts 11°
2026-05-04 23:43 9.01203 -74.77466 25643 ft 276 kts 11°
2026-05-04 23:43 9.03087 -74.77066 25482 ft 276 kts 11°
2026-05-04 23:44 9.04967 -74.76667 25325 ft 275 kts 11°
2026-05-04 23:44 9.06842 -74.76269 25170 ft 275 kts 11°
2026-05-04 23:44 9.08717 -74.75871 24979 ft 276 kts 11°
2026-05-04 23:44 9.10609 -74.75469 24757 ft 277 kts 11°
2026-05-04 23:45 9.12480 -74.75071 24533 ft 272 kts 11°
2026-05-04 23:45 9.14320 -74.74680 24311 ft 269 kts 11°
2026-05-04 23:45 9.16134 -74.74295 24087 ft 264 kts 11°
2026-05-04 23:45 9.17913 -74.73917 23861 ft 259 kts 11°
2026-05-04 23:46 9.19668 -74.73545 23647 ft 256 kts 11°
2026-05-04 23:46 9.21403 -74.73176 23416 ft 253 kts 11°
2026-05-04 23:46 9.23125 -74.72810 23153 ft 252 kts 11°
2026-05-04 23:46 9.24834 -74.72447 22892 ft 250 kts 11°
2026-05-04 23:47 9.26538 -74.72085 22637 ft 249 kts 11°
2026-05-04 23:47 9.28234 -74.71725 22383 ft 249 kts 12°
2026-05-04 23:47 9.29930 -74.71364 22131 ft 248 kts 12°
2026-05-04 23:47 9.31598 -74.71010 21886 ft 248 kts 12°
2026-05-04 23:48 9.33291 -74.70650 21639 ft 249 kts 12°
2026-05-04 23:48 9.34986 -74.70289 21393 ft 249 kts 12°
2026-05-04 23:48 9.36686 -74.69928 21156 ft 250 kts 12°
2026-05-04 23:48 9.38392 -74.69565 20919 ft 250 kts 12°
2026-05-04 23:49 9.40103 -74.69201 20680 ft 251 kts 12°
2026-05-04 23:49 9.41812 -74.68838 20445 ft 251 kts 12°
2026-05-04 23:49 9.43525 -74.68473 20212 ft 251 kts 13°
2026-05-04 23:49 9.45238 -74.68109 19981 ft 252 kts 13°
2026-05-04 23:50 9.46952 -74.67744 19754 ft 252 kts 13°
2026-05-04 23:50 9.48670 -74.67379 19526 ft 252 kts 13°
2026-05-04 23:50 9.50386 -74.67014 19302 ft 252 kts 13°
2026-05-04 23:50 9.52108 -74.66647 19072 ft 252 kts 13°
2026-05-04 23:51 9.53831 -74.66280 18845 ft 253 kts 13°
2026-05-04 23:51 9.55550 -74.65914 18635 ft 253 kts 14°
2026-05-04 23:51 9.57278 -74.65546 18411 ft 253 kts 14°
2026-05-04 23:51 9.59001 -74.65180 18189 ft 253 kts 14°
2026-05-04 23:52 9.60725 -74.64812 17943 ft 253 kts 14°
2026-05-04 23:52 9.62449 -74.64445 17689 ft 251 kts 14°
2026-05-04 23:52 9.64143 -74.64085 17435 ft 247 kts 14°
2026-05-04 23:52 9.65824 -74.63727 17180 ft 245 kts 14°
2026-05-04 23:53 9.67486 -74.63373 16927 ft 243 kts 14°
2026-05-04 23:53 9.69117 -74.63025 16681 ft 242 kts 14°
2026-05-04 23:53 9.70757 -74.62676 16465 ft 240 kts 14°
2026-05-04 23:53 9.72383 -74.62330 16268 ft 238 kts 15°
2026-05-04 23:54 9.73995 -74.61986 16071 ft 236 kts 15°
2026-05-04 23:54 9.75605 -74.61642 15881 ft 235 kts 15°
2026-05-04 23:54 9.77206 -74.61301 15693 ft 235 kts 15°
2026-05-04 23:54 9.78802 -74.60961 15505 ft 234 kts 15°
2026-05-04 23:55 9.80399 -74.60621 15315 ft 234 kts 15°
2026-05-04 23:55 9.81994 -74.60280 15128 ft 234 kts 15°
2026-05-04 23:55 9.85184 -74.59600 14756 ft 234 kts 15°
2026-05-04 23:56 9.86777 -74.59260 14577 ft 234 kts 15°
2026-05-04 23:56 9.88371 -74.58920 14396 ft 234 kts 15°
2026-05-04 23:56 9.89965 -74.58580 14215 ft 234 kts 15°
2026-05-04 23:56 9.91559 -74.58240 14035 ft 234 kts 15°
2026-05-04 23:57 9.93152 -74.57900 13853 ft 234 kts 15°
2026-05-04 23:57 9.94746 -74.57560 13683 ft 234 kts 15°
2026-05-04 23:57 9.96339 -74.57220 13471 ft 234 kts 15°
2026-05-04 23:57 9.97932 -74.56880 13272 ft 234 kts 15°
2026-05-04 23:58 9.99524 -74.56541 13075 ft 234 kts 15°
2026-05-04 23:58 10.01121 -74.56199 12838 ft 235 kts 15°
2026-05-04 23:58 10.02722 -74.55857 12594 ft 235 kts 15°
2026-05-04 23:58 10.04320 -74.55517 12351 ft 235 kts 15°
2026-05-04 23:59 10.05924 -74.55174 12108 ft 236 kts 15°
2026-05-04 23:59 10.06988 -74.54946 11948 ft 236 kts 15°
2026-05-04 23:59 10.08600 -74.54602 11715 ft 237 kts 15°
2026-05-04 23:59 10.10219 -74.54257 11476 ft 238 kts 15°
2026-05-05 00:00 10.11837 -74.53911 11246 ft 238 kts 15°
2026-05-05 00:00 10.12908 -74.53682 11090 ft 237 kts 15°
2026-05-05 00:00 10.15068 -74.53219 10780 ft 236 kts 16°
2026-05-05 00:00 10.16576 -74.52643 10548 ft 230 kts 28°
2026-05-05 00:01 10.18044 -74.51983 10321 ft 231 kts 27°
2026-05-05 00:01 10.19521 -74.51334 10094 ft 231 kts 27°
2026-05-05 00:01 10.20993 -74.50684 9867 ft 231 kts 27°
2026-05-05 00:01 10.22467 -74.50031 9626 ft 231 kts 27°
2026-05-05 00:02 10.23942 -74.49377 9376 ft 231 kts 27°
2026-05-05 00:02 10.25417 -74.48724 9131 ft 230 kts 27°
2026-05-05 00:02 10.26885 -74.48073 8882 ft 230 kts 27°
2026-05-05 00:02 10.28352 -74.47423 8637 ft 229 kts 27°
2026-05-05 00:03 10.29812 -74.46776 8394 ft 229 kts 26°
2026-05-05 00:03 10.31255 -74.46136 8156 ft 228 kts 26°
2026-05-05 00:03 10.32711 -74.45491 7916 ft 228 kts 26°
2026-05-05 00:03 10.34161 -74.44848 7678 ft 227 kts 26°
2026-05-05 00:04 10.35603 -74.44209 7440 ft 227 kts 26°
2026-05-05 00:04 10.37047 -74.43568 7205 ft 226 kts 26°
2026-05-05 00:04 10.38486 -74.42930 7027 ft 223 kts 26°
2026-05-05 00:04 10.39873 -74.42317 7047 ft 213 kts 26°
2026-05-05 00:05 10.41215 -74.41722 7043 ft 207 kts 26°
2026-05-05 00:05 10.42525 -74.41140 7046 ft 204 kts 26°
2026-05-05 00:05 10.43820 -74.40565 7046 ft 202 kts 26°
2026-05-05 00:05 10.45106 -74.39995 7047 ft 201 kts 26°
2026-05-05 00:06 10.46385 -74.39428 7049 ft 200 kts 26°
2026-05-05 00:06 10.47662 -74.38861 7046 ft 200 kts 26°
2026-05-05 00:06 10.48937 -74.38294 7045 ft 200 kts 26°
2026-05-05 00:06 10.50212 -74.37728 7046 ft 200 kts 26°
2026-05-05 00:07 10.51488 -74.37162 7045 ft 200 kts 26°
2026-05-05 00:07 10.52830 -74.36565 7064 ft 226 kts 26°
2026-05-05 00:07 10.54326 -74.35900 7067 ft 242 kts 26°
2026-05-05 00:07 10.55905 -74.35200 7067 ft 252 kts 25°
2026-05-05 00:08 10.57522 -74.34483 7068 ft 255 kts 25°
2026-05-05 00:08 10.59132 -74.33768 7028 ft 248 kts 25°
2026-05-05 00:08 10.60686 -74.33078 6832 ft 240 kts 26°
2026-05-05 00:08 10.62197 -74.32406 6626 ft 235 kts 25°
2026-05-05 00:09 10.63685 -74.31745 6439 ft 231 kts 25°
2026-05-05 00:09 10.65151 -74.31094 6248 ft 229 kts 25°
2026-05-05 00:09 10.66570 -74.30463 6042 ft 216 kts 25°
2026-05-05 00:09 10.67911 -74.29868 5832 ft 205 kts 25°
2026-05-05 00:10 10.69184 -74.29302 5620 ft 196 kts 25°
2026-05-05 00:10 10.70408 -74.28757 5413 ft 188 kts 25°
2026-05-05 00:10 10.71592 -74.28231 5207 ft 183 kts 25°
2026-05-05 00:10 10.72747 -74.27717 5004 ft 179 kts 25°
2026-05-05 00:11 10.73884 -74.27212 4805 ft 183 kts 24°
2026-05-05 00:11 10.75089 -74.26677 4627 ft 194 kts 24°
2026-05-05 00:11 10.76346 -74.26118 4451 ft 200 kts 24°
2026-05-05 00:11 10.77600 -74.25560 4479 ft 195 kts 24°
2026-05-05 00:12 10.78840 -74.25009 4478 ft 194 kts 24°
2026-05-05 00:12 10.80071 -74.24462 4477 ft 193 kts 24°
2026-05-05 00:12 10.81301 -74.23914 4474 ft 193 kts 24°
2026-05-05 00:12 10.82528 -74.23368 4472 ft 193 kts 24°
2026-05-05 00:13 10.83755 -74.22823 4472 ft 192 kts 24°
2026-05-05 00:13 10.85047 -74.22484 4388 ft 195 kts
2026-05-05 00:13 10.86448 -74.22509 4143 ft 203 kts 359°
2026-05-05 00:13 10.87879 -74.22544 3907 ft 206 kts 359°
2026-05-05 00:14 10.89285 -74.22574 3669 ft 199 kts 359°
2026-05-05 00:14 10.90649 -74.22603 3425 ft 192 kts 359°
2026-05-05 00:14 10.91954 -74.22631 3177 ft 184 kts 359°
2026-05-05 00:14 10.93211 -74.22658 2921 ft 178 kts 359°
2026-05-05 00:15 10.94430 -74.22684 2685 ft 171 kts 358°
2026-05-05 00:15 10.95596 -74.22710 2477 ft 164 kts 359°
2026-05-05 00:15 10.96719 -74.22734 2258 ft 160 kts 359°
2026-05-05 00:15 10.97819 -74.22758 2030 ft 155 kts 358°
2026-05-05 00:16 10.98834 -74.22752 2000 ft 136 kts
2026-05-05 00:16 10.99721 -74.22741 1858 ft 122 kts 359°
2026-05-05 00:16 11.00538 -74.22753 1658 ft 107 kts 356°
2026-05-05 00:16 11.01200 -74.22792 1462 ft 95 kts 353°
2026-05-05 00:17 11.01916 -74.22826 1461 ft 108 kts 355°
2026-05-05 00:17 11.02684 -74.22855 1481 ft 115 kts 355°
2026-05-05 00:17 11.03491 -74.22876 1493 ft 113 kts 358°
2026-05-05 00:17 11.04244 -74.22888 1414 ft 109 kts 356°
2026-05-05 00:18 11.05024 -74.22921 1252 ft 115 kts 357°
2026-05-05 00:18 11.05793 -74.22932 1001 ft 103 kts 356°
2026-05-05 00:18 11.06509 -74.22943 860 ft 110 kts 359°
2026-05-05 00:18 11.07334 -74.22971 796 ft 126 kts 357°
2026-05-05 00:19 11.08183 -74.23016 661 ft 116 kts
2026-05-05 00:19 11.08988 -74.23017 457 ft 115 kts 359°
2026-05-05 00:19 11.09762 -74.23026 323 ft 113 kts 359°
2026-05-05 00:19 11.10580 -74.23048 205 ft 119 kts
2026-05-05 00:20 11.11357 -74.23054 33 ft 104 kts
2026-05-05 00:20 11.11987 -74.23064 24 ft 75 kts 355°
2026-05-05 00:20 11.12353 -74.23072 27 ft 36 kts 359°
2026-05-05 00:20 11.12572 -74.23076 25 ft 33 kts 358°
2026-05-05 00:21 11.12686 -74.23099 25 ft 7 kts 322°
2026-05-05 00:21 11.12727 -74.23098 30 ft 5 kts 88°
2026-05-05 00:21 11.12658 -74.23077 26 ft 19 kts 181°
2026-05-05 00:21 11.12476 -74.23072 28 ft 32 kts 179°
2026-05-05 00:22 11.12435 -74.23071 27 ft 5 kts 176°
2026-05-05 00:22 11.12369 -74.23068 27 ft 14 kts 178°
2026-05-05 00:22 11.12249 -74.23075 26 ft 11 kts 191°
2026-05-05 00:22 11.12149 -74.23098 24 ft 19 kts 192°
2026-05-05 00:23 11.12137 -74.23101 24 ft 0 kts 192°
2026-05-05 00:25 11.12134 -74.23101 24 ft 2 kts 191°
2026-05-05 00:25 11.12073 -74.23114 24 ft 16 kts 195°
2026-05-05 00:25 11.11968 -74.23138 23 ft 8 kts 193°
2026-05-05 00:25 11.11907 -74.23151 22 ft 10 kts 192°
2026-05-05 00:26 11.11891 -74.23168 22 ft 7 kts 277°
2026-05-05 00:26 11.11892 -74.23178 22 ft 1 kts 272°
2026-05-05 00:26 11.11898 -74.23193 22 ft 0 kts 310°
2026-05-05 00:26 11.11903 -74.23196 24 ft 2 kts 324°
2026-05-05 00:27 11.11905 -74.23199 23 ft 1 kts 317°
2026-05-05 00:27 11.11908 -74.23201 23 ft 0 kts 316°
2026-05-05 00:34 11.11907 -74.23201 23 ft 0 kts 316°
2026-05-05 00:34 11.11907 -74.23200 23 ft 0 kts 316°